Winnipeg, Manitoba

6:32 AM CST on November 18, 2017 (GMT -0600)
Winnipeg International Airport

Weather History for CYWG - February, 2013

Change the Weather History Date:

Sunday, February 10, 2013

  Actual Average Record
Temperature  
Mean Temperature 24 °F -  
Max Temperature 26 °F 20 °F 41 °F (1999)
Min Temperature 21 °F 0 °F -31 °F (2001)
Degree Days  
Heating Degree Days 42    
Moisture  
Dew Point 22 °F    
Average Humidity 91    
Maximum Humidity 100    
Minimum Humidity 80    
Precipitation  
Precipitation 0.00 in 0.02 in - ()
Sea Level Pressure  
Sea Level Pressure 29.91 in    
Wind  
Wind Speed 12 mph ()    
Max Wind Speed 29 mph    
Max Gust Speed 36 mph    
Visibility 7.3 miles    
Events Snow    
Averages and records for this station are not official NWS values.
T = Trace of Precipitation, MM = Missing Value Source: Averaged Metar Reports

Daily Weather History Graph

Daily Weather History Graph

Search for Another Location

Airport or City:

Trip Planner

Search our weather history database for the weather conditions in past years. The results will help you decide how hot, cold, wet, or windy it might be!

Date:

Astronomy

Feb. 10, 2013 Rise Set
Actual Time 7:47 AM CST 5:39 PM CST
Civil Twilight 7:13 AM CST 6:13 PM CST
Nautical Twilight 6:35 AM CST 6:51 PM CST
Astronomical Twilight 5:58 AM CST 7:28 PM CST
Moon 7:30 AM CST (2/10) 6:42 PM CST (2/10)
Length of Visible Light 10h 59m
Length of Day
9h 52m
New Moon, 0% of the Moon is Illuminated
Feb 10
New Moon
Feb 17
First Quarter
Feb 25
Full
Mar 4
Last Quarter
Mar 11
New

Hourly Weather History & Observations

Time (CST) Temp. Windchill Dew Point Humidity Pressure Visibility Wind Dir Wind Speed Gust Speed Precip Events Conditions
12:00 AM 23 °F - 22 °F 92% 29.94 in 5 mi Calm Calm - -   Overcast
12:00 AM 23.0 °F 10.1 °F 21.2 °F 93% 29.94 in 3.0 mi South 15.0 mph - N/A Snow Light Snow
1:00 AM 23.0 °F 10.6 °F 21.2 °F 93% 29.95 in 3.0 mi South 13.8 mph - N/A Snow Light Snow
2:00 AM 23.0 °F 10.6 °F 21.2 °F 93% 29.95 in 3.0 mi South 13.8 mph - N/A Snow Light Snow
3:00 AM 23.0 °F 18.4 °F 21.2 °F 93% 29.94 in 3.0 mi South 3.5 mph - N/A Snow Light Snow
4:00 AM 23.0 °F - 21.2 °F 93% 29.92 in 3.0 mi Calm Calm - N/A Snow Light Snow
4:34 AM 23.0 °F 17.0 °F 21.2 °F 93% 29.93 in 3.0 mi North 4.6 mph - N/A   Overcast
5:00 AM 23.0 °F 15.8 °F 21.2 °F 93% 29.92 in 3.0 mi NE 5.8 mph - N/A   Overcast
6:00 AM 24 °F - 23 °F 93% 29.92 in 4 mi Calm Calm - -   Overcast
6:00 AM 23.0 °F 14.7 °F 23.0 °F 100% 29.92 in 4.0 mi East 6.9 mph - N/A   Overcast
6:25 AM 23.0 °F 13.9 °F 21.2 °F 93% 29.92 in 4.0 mi East 8.1 mph - N/A   Overcast
7:00 AM 23.0 °F 14.7 °F 21.2 °F 93% 29.92 in 5.0 mi ENE 6.9 mph - N/A   Overcast
8:00 AM 23.0 °F 15.8 °F 23.0 °F 100% 29.94 in 6.0 mi ENE 5.8 mph - N/A   Overcast
9:00 AM 24.8 °F 16.1 °F 23.0 °F 93% 29.95 in 6.0 mi NE 8.1 mph - N/A   Overcast
9:47 AM 24.8 °F 13.4 °F 23.0 °F 93% 29.93 in 6.0 mi NE 12.7 mph - N/A   Overcast
10:00 AM 24.8 °F 14.0 °F 23.0 °F 93% 29.93 in 6.0 mi NE 11.5 mph - N/A   Overcast
11:00 AM 24.8 °F 13.4 °F 23.0 °F 93% 29.93 in 8.0 mi NE 12.7 mph - N/A   Overcast
12:00 PM 26 °F - 24 °F 88% 29.92 in 7 mi Calm Calm - -   Overcast
12:00 PM 26.6 °F 16.2 °F 23.0 °F 86% 29.93 in 10.0 mi NE 11.5 mph - N/A   Overcast
12:36 PM 26.6 °F 15.7 °F 23.0 °F 86% 29.92 in 10.0 mi NNE 12.7 mph - N/A   Overcast
1:00 PM 26.6 °F 15.2 °F 23.0 °F 86% 29.92 in 10.0 mi NNE 13.8 mph - N/A   Overcast
1:10 PM 24.8 °F 12.9 °F 23.0 °F 93% 29.92 in 10.0 mi NNE 13.8 mph - N/A   Overcast
2:00 PM 24.8 °F 11.5 °F 23.0 °F 93% 29.92 in 10.0 mi NNE 17.3 mph - N/A   Overcast
2:42 PM 24.8 °F 10.7 °F 23.0 °F 93% 29.90 in 6.0 mi North 19.6 mph - N/A   Overcast
3:00 PM 24.8 °F 10.3 °F 23.0 °F 93% 29.91 in 6.0 mi North 20.7 mph - N/A   Overcast
3:39 PM 24.8 °F 10.7 °F 23.0 °F 93% 29.89 in 5.0 mi NNE 19.6 mph - N/A   Overcast
3:53 PM 24.8 °F 10.3 °F 23.0 °F 93% 29.89 in 2.5 mi NNE 20.7 mph - N/A   Overcast
4:00 PM 24.8 °F 10.3 °F 23.0 °F 93% 29.90 in 2.0 mi NNE 20.7 mph 27.6 mph N/A   Overcast
4:34 PM 24.8 °F 9.3 °F 23.0 °F 93% 29.88 in 1.5 mi NNE 24.2 mph - N/A Snow Light Snow
5:00 PM 24.8 °F 9.3 °F 23.0 °F 93% 29.88 in 1.0 mi NNE 24.2 mph - N/A Snow Light Snow
5:24 PM 24.8 °F 9.0 °F 23.0 °F 93% 29.88 in 6.0 mi NNE 25.3 mph 32.2 mph N/A   Overcast
5:51 PM 23.0 °F 6.6 °F 21.2 °F 93% 29.88 in 15.0 mi NNE 25.3 mph - N/A   Overcast
6:00 PM 24 °F - 22 °F 88% 29.89 in 9 mi Calm Calm - -   Overcast
6:00 PM 23.0 °F 7.2 °F 21.2 °F 93% 29.89 in 15.0 mi NNE 23.0 mph 31.1 mph N/A   Overcast
6:37 PM 23.0 °F 6.6 °F 19.4 °F 86% 29.89 in 15.0 mi NNE 25.3 mph 32.2 mph N/A   Overcast
7:00 PM 23.0 °F 6.6 °F 19.4 °F 86% 29.89 in 15.0 mi NNE 25.3 mph 34.5 mph N/A   Overcast
8:00 PM 21.2 °F 3.3 °F 19.4 °F 93% 29.91 in 15.0 mi NNE 28.8 mph - N/A   Overcast
9:00 PM 23.0 °F 6.9 °F 19.4 °F 86% 29.91 in 15.0 mi NNE 24.2 mph 35.7 mph N/A   Overcast
10:00 PM 23.0 °F 6.9 °F 17.6 °F 80% 29.91 in 15.0 mi NNE 24.2 mph 32.2 mph N/A   Overcast
11:00 PM 23.0 °F 8.7 °F 17.6 °F 80% 29.91 in 15.0 mi North 18.4 mph 27.6 mph N/A   Overcast